[[{"header":{"parameterUnit":"m.s-1","parameterCategory":1,"la1":30.2991,"la2":30.254,"lo1":-89.0895,"lo2":-89.0444,"dy":0.0017,"dx":0.0017,"nx":28,"ny":28,"refTime":"2025-06-11T21:00:00:Z","depth":0,"parameterNumber":2,"parameterNumberName":"U-component_of_WINDS"},"data":[0,0,0,0,0,0,0,0,0,0,0,0,0,0,0,0,0,0,0,0,0,0,0,0,0,0,0,0,0,0,0,0,0,0,0,0,0,0,0,0,0,0,0,0,0,0,0,0,0,0,0,0,0,0,0,0,0,0,1.2779,1.278,0,1.2879,1.288,1.2881,1.2898,1.2897,1.2896,1.2895,1.2994,1.2998,1.3001,0,0,0,0,0,0,0,0,0,0,0,0,0,1.2598,1.2601,1.2779,1.278,1.2781,1.2879,1.288,1.2882,1.2898,1.2897,1.2896,1.2895,1.2993,1.2997,1.3002,0,0,0,0,0,0,0,0,0,0,0,0,0,1.2685,1.2602,1.2779,1.2801,1.2804,1.2879,1.288,1.2882,1.2898,1.2897,1.2896,1.2895,1.2992,1.2997,1.3002,1.3059,0,0,1.3018,1.302,0,0,0,0,0,0,0,0,1.268,1.2692,1.2797,1.28,1.2803,1.2875,1.2853,1.2941,1.2899,1.2863,1.2895,1.2894,1.2955,1.2964,1.2985,1.3064,1.3068,1.3018,1.3021,1.3024,1.3025,0,0,0,0,0,0,0,1.2674,1.2687,1.2818,1.2798,1.2802,1.2805,1.2816,1.287,1.2915,1.2866,1.2867,1.2879,1.2957,1.298,1.2987,1.307,1.3018,1.3023,1.3026,1.3028,1.3199,1.3201,0,0,0,0,0,0,1.2664,1.2682,1.2815,1.2821,1.2738,1.281,1.2822,1.2853,1.2914,1.2922,1.288,1.2879,1.2972,1.2981,1.2991,1.3061,1.3024,1.3028,1.3031,1.3198,1.32,1.3201,0,0,0,0,0,0,1.2661,1.2676,1.2811,1.2752,1.277,1.2814,1.2849,1.2856,1.2879,1.2925,1.2933,1.2895,1.2971,1.2984,1.3042,1.3065,1.3031,1.3035,1.3196,1.3199,1.3201,1.3202,0,0,0,0,0,0,1.2655,1.2675,1.2698,1.2753,1.2773,1.2862,1.285,1.2859,1.2888,1.2888,1.2942,1.2949,1.2971,1.3034,1.3047,1.3071,1.3039,1.3194,1.3197,1.32,1.32,1.3204,1.3208,0,0,0,0,0,1.2649,1.2694,1.2699,1.2715,1.2803,1.2863,1.2874,1.29,1.289,1.2913,1.2942,1.2948,1.3061,1.304,1.3055,1.3081,1.3193,1.3196,1.32,1.3199,1.3204,1.3208,0,0,0,0,0,0,1.2639,1.2701,1.2708,1.2772,1.2812,1.2866,1.2895,1.2904,1.2947,1.2945,1.2974,1.2986,1.3042,1.3068,1.3044,1.3139,1.3126,1.3132,1.312,1.3125,1.3129,1.3121,1.3044,0,0,0,0,0,1.2645,1.269,1.2741,1.2793,1.2813,1.2851,1.2878,1.2894,1.2936,1.2953,1.2987,1.3027,1.3071,1.31,1.3143,1.3205,1.3216,1.3229,1.3233,1.3236,1.324,1.3273,1.328,1.3212,1.3212,1.3212,0,0,1.2656,1.2696,1.2722,1.2792,1.2825,1.2869,1.2865,1.2912,1.2945,1.296,1.3017,1.3043,1.309,1.315,1.3178,1.3172,1.3262,1.324,1.3242,1.3245,1.3277,1.3284,1.3289,1.3215,1.3214,1.3214,0,0,1.27,1.2735,1.2781,1.2815,1.2865,1.289,1.2901,1.2954,1.2972,1.303,1.3042,1.3081,1.3157,1.3189,1.3215,1.3271,1.3277,1.3284,1.3303,1.3334,1.334,1.3344,1.3363,1.3369,1.3289,1.3289,1.3289,0,1.2707,1.2776,1.2804,1.2851,1.2881,1.2897,1.2943,1.2974,1.3036,1.3055,1.3049,1.3144,1.3177,1.3244,1.3257,1.3279,1.3291,1.3278,1.3337,1.3342,1.3347,1.3365,1.3372,1.329,1.329,1.329,1.3289,0,1.2782,1.283,1.2861,1.2921,1.2954,1.3,1.3034,1.3064,1.3077,1.3102,1.3161,1.32,1.3252,1.3269,1.3282,1.3338,1.3333,1.3331,1.3319,1.3353,1.337,1.3378,1.329,1.329,1.329,1.329,0,0,1.2822,1.2897,1.2907,1.2934,1.2991,1.3028,1.3074,1.3126,1.315,1.3192,1.3231,1.3295,1.3294,1.3324,1.3341,1.3369,1.3409,1.3364,1.3365,1.337,1.3471,1.347,1.3478,1.3413,1.3415,1.3416,1.3466,0,1.2871,1.2956,1.2982,1.3052,1.3095,1.3112,1.3152,1.319,1.3215,1.3254,1.3281,1.3326,1.3322,1.334,1.3369,1.3398,1.3429,1.3395,1.3448,1.345,1.3435,1.3487,1.3487,1.3533,1.3473,1.3475,1.3475,0,1.2939,1.2983,1.3058,1.3108,1.3127,1.3163,1.3212,1.325,1.3294,1.3309,1.3343,1.3357,1.3405,1.3391,1.3457,1.3433,1.3456,1.3474,1.3476,1.3481,1.3464,1.3492,1.3548,1.3554,1.3487,1.3486,1.3485,0,1.2959,1.3036,1.3091,1.3114,1.3174,1.3199,1.3225,1.3268,1.3297,1.3339,1.3358,1.3405,1.343,1.3465,1.3492,1.3479,1.3555,1.3543,1.3568,1.3567,1.3582,1.358,1.3641,1.3599,1.3599,1.3599,1.3599,0,1.301,1.3054,1.31,1.3134,1.3184,1.3213,1.3262,1.3289,1.3326,1.3364,1.3381,1.3416,1.345,1.3489,1.351,1.356,1.3572,1.3585,1.3589,1.3583,1.3581,1.3597,1.3594,1.3601,1.36,1.36,1.36,0,1.3039,1.3072,1.3132,1.3185,1.3199,1.3234,1.3279,1.3311,1.3337,1.3384,1.3397,1.3437,1.3484,1.3514,1.3574,1.3588,1.3642,1.3647,1.3628,1.363,1.3653,1.3649,1.3725,1.3736,1.3688,1.3688,1.3689,0,1.3069,1.3104,1.3161,1.3188,1.3214,1.3258,1.3288,1.3318,1.3348,1.34,1.3425,1.3474,1.3514,1.3588,1.3621,1.3667,1.3672,1.3695,1.3678,1.367,1.367,1.3667,1.367,1.3697,1.3697,1.3698,1.3698,0,1.3118,1.3132,1.3175,1.3223,1.3258,1.3298,1.3337,1.3358,1.3394,1.3427,1.3476,1.3507,1.3568,1.3615,1.3664,1.369,1.3699,1.3703,1.3711,1.3704,1.369,1.3696,1.3633,1.3701,1.3701,1.37,1.37,1.37,1.3147,1.3179,1.3223,1.327,1.3303,1.3339,1.3372,1.3402,1.3443,1.3496,1.3511,1.3562,1.3604,1.367,1.3697,1.3736,1.3733,1.3745,1.3748,1.375,1.3749,1.3686,1.3745,1.3745,1.3745,1.3745,1.3745,0,1.3196,1.3225,1.3268,1.3323,1.3359,1.3367,1.341,1.344,1.3484,1.3523,1.3563,1.3618,1.3664,1.3702,1.3749,1.3772,1.3778,1.3784,1.3781,1.3787,1.375,1.3738,1.3778,1.3778,1.3778,1.3778,1.3778,1.3778,1.3225,1.3278,1.3298,1.3367,1.3396,1.3446,1.347,1.3503,1.3534,1.3596,1.3634,1.3659,1.3697,1.3747,1.3789,1.3799,1.3814,1.3819,1.3829,1.3793,1.379,1.3786,1.3775,1.3823,1.3823,1.3863,1.3864,1.3864]},{"header":{"parameterUnit":"m.s-1","parameterCategory":1,"la1":30.2991,"la2":30.254,"lo1":-89.0895,"lo2":-89.0444,"dy":0.0017,"dx":0.0017,"nx":28,"ny":28,"refTime":"2025-06-11T21:00:00:Z","depth":0,"parameterNumber":3,"parameterNumberName":"V-component_of_WINDS"},"data":[0,0,0,0,0,0,0,0,0,0,0,0,0,0,0,0,0,0,0,0,0,0,0,0,0,0,0,0,0,0,0,0,0,0,0,0,0,0,0,0,0,0,0,0,0,0,0,0,0,0,0,0,0,0,0,0,0,0,4.4824,4.4823,0,4.4718,4.4717,4.4715,4.4567,4.4565,4.4562,4.456,4.4453,4.4452,4.4452,0,0,0,0,0,0,0,0,0,0,0,0,0,4.4899,4.4898,4.4824,4.4823,4.4821,4.4718,4.4717,4.4715,4.4568,4.4565,4.4562,4.4559,4.4453,4.4452,4.4452,0,0,0,0,0,0,0,0,0,0,0,0,0,4.4837,4.4898,4.4824,4.4735,4.4726,4.4718,4.4717,4.4715,4.4568,4.4565,4.4561,4.4557,4.4453,4.4453,4.4452,4.4523,0,0,4.4449,4.4449,0,0,0,0,0,0,0,0,4.4841,4.4835,4.475,4.4741,4.4731,4.4652,4.4703,4.4651,4.4569,4.4628,4.456,4.4555,4.4522,4.4516,4.4504,4.4518,4.4513,4.4449,4.4449,4.4449,4.4448,0,0,0,0,0,0,0,4.4845,4.4838,4.4782,4.4749,4.4737,4.4701,4.4688,4.4693,4.4598,4.4623,4.4612,4.4601,4.4516,4.4505,4.45,4.4512,4.4449,4.4449,4.4448,4.4448,4.4575,4.4579,0,0,0,0,0,0,4.4863,4.4843,4.4785,4.4779,4.4778,4.4702,4.4688,4.4681,4.4597,4.4581,4.4605,4.4595,4.4508,4.4501,4.4496,4.4571,4.4449,4.4448,4.4448,4.4571,4.4576,4.458,0,0,0,0,0,0,4.4865,4.4859,4.479,4.4808,4.4796,4.4705,4.4699,4.4681,4.4669,4.4584,4.4566,4.4611,4.4505,4.4497,4.4516,4.4566,4.4448,4.4447,4.4567,4.4573,4.4578,4.4725,0,0,0,0,0,0,4.4868,4.4861,4.4887,4.4809,4.4796,4.4813,4.4702,4.4682,4.4668,4.4655,4.4584,4.4569,4.4501,4.4518,4.4516,4.4563,4.4446,4.4562,4.4569,4.4576,4.4715,4.4735,4.4752,0,0,0,0,0,4.4871,4.4933,4.4889,4.4883,4.4827,4.4816,4.4808,4.4728,4.4673,4.4698,4.4643,4.4571,4.4561,4.4522,4.4517,4.4565,4.4559,4.4567,4.4576,4.4707,4.4731,4.4751,0,0,0,0,0,0,4.502,4.4922,4.4871,4.4911,4.4873,4.4791,4.482,4.4757,4.4734,4.4722,4.4624,4.461,4.4641,4.4605,4.4562,4.4628,4.4549,4.4557,4.465,4.4672,4.469,4.4698,4.4446,0,0,0,0,0,4.5058,4.5057,4.4971,4.5014,4.4997,4.4913,4.4905,4.4846,4.4803,4.4786,4.4732,4.4693,4.468,4.4674,4.4658,4.4709,4.4691,4.474,4.4758,4.4774,4.4782,4.4803,4.4823,4.4608,4.4608,4.4608,0,0,4.5135,4.5081,4.5087,4.5042,4.5006,4.5007,4.49,4.4906,4.4905,4.4787,4.4801,4.4761,4.471,4.4745,4.4758,4.4716,4.4837,4.4785,4.4798,4.4797,4.4814,4.4835,4.4853,4.4614,4.4613,4.4612,0,0,4.5276,4.5236,4.5266,4.5231,4.5177,4.512,4.5128,4.5055,4.5023,4.5035,4.4946,4.4944,4.4925,4.4892,4.4873,4.5,4.4932,4.4997,4.5093,4.5115,4.5132,4.5147,4.519,4.5207,4.5006,4.5006,4.5006,0,4.5379,4.5377,4.529,4.5301,4.5283,4.5176,4.5205,4.5176,4.512,4.511,4.5064,4.5036,4.4995,4.5019,4.505,4.5039,4.5043,4.5005,4.5137,4.515,4.5163,4.5203,4.522,4.5014,4.5013,4.5013,4.5012,0,4.5505,4.5505,4.5536,4.5483,4.5469,4.549,4.5405,4.5402,4.5344,4.5292,4.5305,4.5252,4.5222,4.5223,4.5168,4.5239,4.5215,4.5155,4.5073,4.5193,4.5229,4.5244,4.5026,4.5023,4.5021,4.5019,0,0,4.5738,4.5636,4.5648,4.5622,4.5553,4.5551,4.5566,4.5536,4.5534,4.5499,4.5508,4.5493,4.5436,4.5414,4.5354,4.5374,4.5475,4.531,4.5307,4.5341,4.5548,4.5593,4.5613,4.543,4.5433,4.5435,4.5551,0,4.5865,4.5884,4.5805,4.5845,4.5842,4.5739,4.5752,4.5711,4.5663,4.5653,4.5599,4.5589,4.5516,4.5501,4.5516,4.546,4.5515,4.5451,4.5437,4.5437,4.5452,4.5632,4.568,4.5792,4.5565,4.5568,4.5569,0,4.6015,4.5986,4.6026,4.5953,4.5949,4.5962,4.5927,4.5919,4.587,4.5833,4.5808,4.5738,4.5747,4.567,4.5679,4.5636,4.5626,4.5597,4.5599,4.5594,4.551,4.563,4.5827,4.5843,4.5591,4.5589,4.5588,0,4.6179,4.615,4.6169,4.615,4.6066,4.6077,4.6043,4.599,4.5976,4.5946,4.5935,4.5907,4.5891,4.587,4.5794,4.5745,4.5811,4.5728,4.5779,4.5782,4.5798,4.5798,4.5994,4.5794,4.5793,4.5793,4.5793,0,4.6328,4.6355,4.6241,4.6253,4.628,4.6189,4.6219,4.6174,4.6128,4.6128,4.6038,4.604,4.594,4.5931,4.5871,4.5886,4.588,4.585,4.5833,4.5857,4.5861,4.5848,4.5838,4.5797,4.5796,4.5796,4.5795,0,4.6515,4.644,4.6453,4.6372,4.6353,4.6376,4.6307,4.6313,4.6259,4.626,4.6255,4.6169,4.6154,4.6075,4.6042,4.6001,4.6037,4.6005,4.6054,4.6043,4.6098,4.6093,4.6292,4.6313,4.6101,4.6104,4.6105,0,4.6614,4.6633,4.6554,4.6547,4.6517,4.6508,4.6493,4.6404,4.6392,4.6337,4.635,4.6327,4.6304,4.6283,4.6217,4.619,4.6156,4.6228,4.6152,4.6175,4.6155,4.6155,4.6155,4.6244,4.6247,4.6249,4.6251,0,4.6798,4.676,4.6742,4.6711,4.6695,4.6666,4.6632,4.6632,4.6533,4.6524,4.6507,4.6489,4.6453,4.6431,4.6393,4.6356,4.6287,4.6276,4.6286,4.631,4.6337,4.6321,4.6097,4.6271,4.6269,4.6268,4.6267,4.6266,4.6943,4.6954,4.69,4.6882,4.6847,4.6816,4.6818,4.6763,4.6747,4.6711,4.666,4.6649,4.6597,4.6538,4.6507,4.6496,4.6457,4.6472,4.6476,4.6481,4.6492,4.6339,4.6489,4.6488,4.6488,4.6487,4.6486,0,4.7121,4.708,4.7065,4.702,4.7006,4.6942,4.69,4.6892,4.6884,4.6841,4.682,4.6799,4.6776,4.6708,4.6678,4.6682,4.665,4.6677,4.6676,4.6668,4.653,4.6523,4.6704,4.6704,4.6704,4.6704,4.6704,4.6704,4.7212,4.7226,4.7181,4.7177,4.7135,4.7124,4.7106,4.7077,4.7042,4.7022,4.7003,4.6958,4.6905,4.687,4.6846,4.6826,4.6819,4.6857,4.6827,4.6699,4.6678,4.6658,4.6651,4.6856,4.6856,4.6965,4.6966,4.6967]}]]